This is the latest recevied weather packets stored in our database for station/object NO9B. If no packets are shown the sender has not sent any weather packets the latest 10 day(s).
| Time | Temp. | Humidity | Pressure | Rain* | Wind** | Luminosity | Snow |
|---|---|---|---|---|---|---|---|
| 1787539141 | 16.67° C | 84% | 1018 hPa | 0 mm | - | 0 W/m² | - |
| 1787538837 | 16.67° C | 83% | 1018 hPa | 0 mm | - | 0 W/m² | - |
| 1787538534 | 16.67° C | 82% | 1017.9 hPa | 0 mm | - | 0 W/m² | - |
| 1787538229 | 16.67° C | 82% | 1017.8 hPa | 0 mm | - | 0 W/m² | - |
| 1787537925 | 16.67° C | 82% | 1017.8 hPa | 0 mm | - | 0 W/m² | - |
| 1787537622 | 17.22° C | 81% | 1017.8 hPa | 0 mm | - | 0 W/m² | - |
| 1787537322 | 17.22° C | 80% | 1017.7 hPa | 0 mm | - | 0 W/m² | - |
| 1787537017 | 17.22° C | 80% | 1017.8 hPa | 0 mm | - | 0 W/m² | - |
| 1787536716 | 17.78° C | 79% | 1017.6 hPa | 0 mm | - | 0 W/m² | - |
| 1787536414 | 17.78° C | 77% | 1017.7 hPa | 0 mm | - | 0 W/m² | - |
| 1787536113 | 17.78° C | 78% | 1017.5 hPa | 0 mm | - | 0 W/m² | - |
| 1787535810 | 17.78° C | 77% | 1017.6 hPa | 0 mm | - | 0 W/m² | - |
| 1787535509 | 18.33° C | 75% | 1017.5 hPa | 0 mm | - | 0 W/m² | - |
| 1787535205 | 18.33° C | 75% | 1017.5 hPa | 0 mm | - | 0 W/m² | - |
| 1787534900 | 18.89° C | 74% | 1017.4 hPa | 0 mm | - | 0 W/m² | - |
| 1787534599 | 18.89° C | 74% | 1017.5 hPa | 0 mm | - | 0 W/m² | - |
| 1787534298 | 19.44° C | 72% | 1017.3 hPa | 0 mm | - | 0 W/m² | - |
| 1787533994 | 19.44° C | 71% | 1017.2 hPa | 0 mm | - | 0 W/m² | - |
| 1787533689 | 20° C | 68% | 1017.4 hPa | 0 mm | - | 0 W/m² | - |
| 1787533386 | 20° C | 66% | 1017.2 hPa | 0 mm | - | 0 W/m² | - |
| 1787533086 | 20° C | 61% | 1017.1 hPa | 0 mm | - | 0 W/m² | - |
| 1787532781 | 20.56° C | 62% | 1017 hPa | 0 mm | - | 0 W/m² | - |
| 1787532481 | 20.56° C | 61% | 1016.9 hPa | 0 mm | - | 1 W/m² | - |
| 1787532178 | 20.56° C | 62% | 1017 hPa | 0 mm | - | 1 W/m² | - |
| 1787531873 | 20.56° C | 59% | 1016.9 hPa | 0 mm | - | 2 W/m² | - |
* Rain latest hour (hover to see other rain measurements)
** Current wind speed in m/s (hover to see current wind gust speed)